Houghton Lake, MI

12:42 PM EST on February 13, 2016 (GMT -0500)
Roscommon County

Weather History for KHTL - November, 2012

Change the Weather History Date:

Friday, November 16, 2012

  Actual Average Record
Temperature  
Mean Temperature 34 °F 35 °F  
Max Temperature 45 °F 42 °F 69 °F (1931)
Min Temperature 23 °F 27 °F -11 °F (1933)
Degree Days  
Heating Degree Days 31 30  
Month to date heating degree days 455 440  
Since 1 July heating degree days 1296 1418  
Moisture  
Dew Point 27 °F    
Average Humidity 81    
Maximum Humidity 100    
Minimum Humidity 62    
Precipitation  
Precipitation 0.00 in 0.08 in 0.69 in (1956)
Month to date precipitation 0.23 1.26  
Year to date precipitation 29.96 26.04  
Snow  
Snow 0.00 in 0.30 in 5.60 in (1989)
Month to date snowfall 0.2 3.1  
Since 1 July snowfall 0.2 3.7  
Snow Depth 0.00 in    
Sea Level Pressure  
Sea Level Pressure 30.42 in    
Wind  
Wind Speed 2 mph (East)    
Max Wind Speed 8 mph    
Max Gust Speed 12 mph    
Visibility 4 miles    
Events Fog    
T = Trace of Precipitation, MM = Missing Value Source: NWS Daily Summary

Daily Weather History Graph

Daily Weather History Graph

Search for Another Location

Airport or City:

Trip Planner

Search our weather history database for the weather conditions in past years. The results will help you decide how hot, cold, wet, or windy it might be!

Date:

Astronomy

Nov. 16, 2012 Rise Set
Actual Time 7:36 AM EST 5:10 PM EST
Civil Twilight 7:05 AM EST 5:41 PM EST
Nautical Twilight 6:29 AM EST 6:16 PM EST
Astronomical Twilight 5:55 AM EST 6:51 PM EST
Moon 10:32 AM EST (11/16) 8:07 PM EST (11/16)
Length of Visible Light 10h 36m
Length of Day
9h 33m
Waxing Crescent, 11% of the Moon is Illuminated
Nov 16
Waxing Crescent
Nov 20
First Quarter
Nov 28
Full
Dec 6
Last Quarter
Dec 13
New

Hourly Weather History & Observations

Time (EST) Temp. Windchill Dew Point Humidity Pressure Visibility Wind Dir Wind Speed Gust Speed Precip Events Conditions
12:53 AM 33.1 °F 30.0 °F 30.9 °F 92% 30.37 in 4.0 mi West 3.5 mph - N/A   Clear
1:53 AM 27.0 °F - 26.1 °F 96% 30.38 in 2.5 mi Calm Calm - N/A   Clear
2:18 AM 26.6 °F - 24.8 °F 93% 30.34 in 1.5 mi Calm Calm - N/A   Clear
2:23 AM 26.6 °F - 24.8 °F 93% 30.34 in 0.8 mi Calm Calm - N/A   Mist
2:44 AM 24.8 °F 20.5 °F 23.0 °F 93% 30.34 in 1.2 mi East 3.5 mph - N/A   Mostly Cloudy
2:49 AM 24.8 °F 20.5 °F 23.0 °F 93% 30.34 in 0.8 mi ESE 3.5 mph - N/A   Mist
2:53 AM 25.0 °F - 24.1 °F 96% 30.38 in 0.5 mi Calm Calm - N/A Fog Light Freezing Fog
3:01 AM 24.8 °F 20.5 °F 23.0 °F 93% 30.34 in 1.2 mi East 3.5 mph - N/A   Overcast
3:05 AM 24.8 °F 20.5 °F 23.0 °F 93% 30.34 in 2.0 mi East 3.5 mph - N/A   Overcast
3:14 AM 24.8 °F - 24.8 °F 100% 30.34 in 1.5 mi Calm Calm - N/A   Overcast
3:24 AM 24.8 °F - 24.8 °F 100% 30.34 in 1.0 mi Calm Calm - N/A   Mist
3:28 AM 24.8 °F - 24.8 °F 100% 30.34 in 1.8 mi Calm Calm - N/A   Overcast
3:40 AM 24.8 °F - 21.2 °F 86% 30.35 in 1.0 mi Calm Calm - N/A   Mist
3:45 AM 24.8 °F - 21.2 °F 86% 30.35 in 1.8 mi Calm Calm - N/A   Overcast
3:47 AM 24.8 °F - 23.0 °F 93% 30.35 in 3.0 mi Calm Calm - N/A   Overcast
3:53 AM 24.1 °F - 21.9 °F 91% 30.40 in 2.5 mi Calm Calm - N/A   Overcast
3:55 AM 24.8 °F - 23.0 °F 93% 30.35 in 1.0 mi Calm Calm - N/A   Mist
3:57 AM 24.8 °F - 23.0 °F 93% 30.35 in 0.5 mi Calm Calm - N/A Fog Light Freezing Fog
4:04 AM 24.8 °F - 23.0 °F 93% 30.35 in 0.5 mi Calm Calm - N/A Fog Light Freezing Fog
4:14 AM 24.8 °F - 23.0 °F 93% 30.35 in 1.2 mi Calm Calm - N/A   Overcast
4:16 AM 23.0 °F - 23.0 °F 100% 30.36 in 0.8 mi Calm Calm - N/A   Mist
4:26 AM 23.0 °F - 21.2 °F 93% 30.36 in 0.2 mi Calm Calm - N/A Fog Light Freezing Fog
4:32 AM 23.0 °F - 21.2 °F 93% 30.36 in 0.2 mi Calm Calm - N/A Fog Light Freezing Fog
4:43 AM 23.0 °F - 21.2 °F 93% 30.36 in 1.0 mi Calm Calm - N/A   Mist
4:45 AM 23.0 °F - 21.2 °F 93% 30.37 in 2.0 mi Calm Calm - N/A   Overcast
4:49 AM 23.0 °F - 21.2 °F 93% 30.37 in 3.0 mi Calm Calm - N/A   Overcast
4:53 AM 24.1 °F - 23.0 °F 96% 30.42 in 3.0 mi Calm Calm - N/A   Overcast
5:15 AM 24.8 °F - 23.0 °F 93% 30.38 in 4.0 mi Calm Calm - N/A   Overcast
5:27 AM 26.6 °F - 24.8 °F 93% 30.38 in 5.0 mi Calm Calm - N/A   Overcast
5:53 AM 28.0 °F - 27.0 °F 96% 30.43 in 4.0 mi Calm Calm - N/A   Overcast
6:53 AM 28.0 °F - 27.0 °F 96% 30.44 in 4.0 mi Calm Calm - N/A   Overcast
7:35 AM 28.4 °F - 28.4 °F 100% 30.40 in 2.5 mi Calm Calm - N/A   Mostly Cloudy
7:53 AM 27.0 °F - 26.1 °F 96% 30.46 in 2.0 mi Calm Calm - N/A   Partly Cloudy
8:32 AM 26.6 °F - 26.6 °F 100% 30.42 in 3.0 mi Calm Calm - N/A   Clear
8:53 AM 28.0 °F - 27.0 °F 96% 30.47 in 2.5 mi Calm Calm - N/A   Clear
9:22 AM 32.0 °F - 32.0 °F 100% 30.43 in 1.8 mi Calm Calm - N/A   Clear
9:40 AM 35.6 °F - 33.8 °F 93% 30.43 in 2.5 mi Calm Calm - N/A   Clear
9:48 AM 35.6 °F - 33.8 °F 93% 30.43 in 3.0 mi Calm Calm - N/A   Clear
9:53 AM 37.0 °F - 35.1 °F 93% 30.48 in 3.0 mi Calm Calm - N/A   Clear
10:53 AM 41.0 °F 38.0 °F 33.1 °F 73% 30.49 in 10.0 mi NNE 4.6 mph - N/A   Clear
11:28 AM 42.8 °F 40.1 °F 33.8 °F 70% 30.45 in 10.0 mi NNW 4.6 mph - N/A   Mostly Cloudy
11:44 AM 42.8 °F 41.1 °F 33.8 °F 70% 30.44 in 10.0 mi North 3.5 mph - N/A   Scattered Clouds
11:53 AM 43.0 °F 39.5 °F 33.1 °F 68% 30.48 in 10.0 mi North 5.8 mph - N/A   Mostly Cloudy
12:04 PM 42.8 °F 41.1 °F 33.8 °F 70% 30.44 in 10.0 mi NNE 3.5 mph - N/A   Scattered Clouds
12:37 PM 44.6 °F 42.2 °F 33.8 °F 66% 30.44 in 10.0 mi NNW 4.6 mph - N/A   Mostly Cloudy
12:53 PM 43.0 °F 41.3 °F 33.1 °F 68% 30.48 in 10.0 mi Variable 3.5 mph - N/A   Overcast
1:33 PM 42.8 °F 40.1 °F 33.8 °F 70% 30.44 in 10.0 mi WSW 4.6 mph - N/A   Scattered Clouds
1:53 PM 44.1 °F 41.5 °F 34.0 °F 68% 30.49 in 10.0 mi SW 4.6 mph - N/A   Clear
2:53 PM 45.0 °F 42.6 °F 32.0 °F 60% 30.49 in 10.0 mi SW 4.6 mph - N/A   Clear
3:53 PM 45.0 °F - 33.1 °F 63% 30.50 in 10.0 mi Calm Calm - N/A   Clear
4:53 PM 42.1 °F - 32.0 °F 67% 30.50 in 10.0 mi Calm Calm - N/A   Clear
5:53 PM 35.1 °F - 30.0 °F 82% 30.51 in 10.0 mi Calm Calm - N/A   Clear
6:53 PM 30.0 °F - 28.0 °F 92% 30.52 in 8.0 mi Calm Calm - N/A   Clear
7:53 PM 28.0 °F - 26.1 °F 92% 30.52 in 10.0 mi Calm Calm - N/A   Clear
8:53 PM 26.1 °F 21.9 °F 24.1 °F 92% 30.53 in 5.0 mi East 3.5 mph - N/A   Clear
9:53 PM 26.1 °F - 24.1 °F 92% 30.52 in 10.0 mi Calm Calm - N/A   Clear
10:29 PM 26.6 °F - 24.8 °F 93% 30.47 in 1.5 mi Calm Calm - N/A   Clear
10:32 PM 26.6 °F - 24.8 °F 93% 30.47 in 0.8 mi Calm Calm - N/A   Clear
10:35 PM 26.6 °F - 26.6 °F 100% 30.47 in 0.5 mi Calm Calm - N/A Fog Light Freezing Fog
10:53 PM 27.0 °F 23.0 °F 26.1 °F 96% 30.52 in 0.2 mi ESE 3.5 mph - N/A Fog Light Freezing Fog
11:07 PM 28.4 °F 24.6 °F 26.6 °F 93% 30.47 in 1.2 mi ESE 3.5 mph - N/A   Mostly Cloudy
11:10 PM 28.4 °F 24.6 °F 28.4 °F 100% 30.47 in 1.8 mi ESE 3.5 mph - N/A   Scattered Clouds
11:20 PM 28.4 °F 24.6 °F 28.4 °F 100% 30.47 in 2.5 mi East 3.5 mph - N/A   Partly Cloudy
11:31 PM 28.4 °F 24.6 °F 28.4 °F 100% 30.47 in 3.0 mi ESE 3.5 mph - N/A   Clear
11:40 PM 30.2 °F 25.4 °F 28.4 °F 93% 30.47 in 4.0 mi ESE 4.6 mph - N/A   Scattered Clouds
11:49 PM 30.2 °F 25.4 °F 28.4 °F 93% 30.47 in 5.0 mi ESE 4.6 mph - N/A   Mostly Cloudy
11:53 PM 30.0 °F 25.2 °F 28.9 °F 96% 30.51 in 5.0 mi ESE 4.6 mph - N/A   Mostly Cloudy